Temp
20 21 21 21 24 22 22 24 20 23 24 25 24 27 28 28 28 29 23 23 23 24 25 24 24 23 23 23 23 23 23 24 24 24 23 22 22 22 21 21 20 20 20 20 20 20 20 21 21
20 20 20 20 23 24 25 22 23 25 25 24 25 26 27 29 28 28 24 21 23 23 25 23 23 23 23 23 23 23 23 23 23 23 22 22 22 21 21 21 20 20 20 20 20 20 20 20 20
19 20 23 22 20 25 26 23 25 23 23 24 26 26 27 29 27 26 24 23 22 22 24 24 23 23 22 23 23 22 23 23 23 22 22 22 21 21 21 20 20 20 20 19 19 20 20 20 20
19 20 19 21 22 21 22 23 22 24 26 24 25 27 27 26 26 24 23 22 20 21 22 24 23 23 22 22 22 22 22 22 22 22 22 21 21 21 21 20 20 19 19 18 18 20 20 19 19
17 19 21 19 20 19 20 21 22 24 24 25 24 26 26 27 24 24 23 22 20 21 22 24 23 23 22 22 22 22 22 22 22 22 22 21 21 21 21 20 19 19 19 18 19 20 19 20 19
21 18 20 21 21 20 22 23 23 23 24 25 24 24 27 25 23 20 22 20 19 20 22 23 23 22 22 22 22 22 22 22 22 22 21 21 21 21 20 20 19 19 19 19 20 19 19 19 19
20 20 20 19 20 21 23 24 24 25 24 25 25 26 27 27 22 24 19 20 21 21 22 22 22 21 22 22 22 22 22 22 22 21 21 21 21 20 20 20 19 19 19 19 19 20 19 19 19
18 19 18 19 21 22 22 23 23 23 24 24 25 26 26 25 22 21 20 19 20 21 21 21 20 21 21 21 21 21 21 21 21 21 21 21 20 20 20 20 19 19 19 19 19 19 19 19 19
16 19 19 20 20 22 22 21 22 22 23 23 24 25 24 21 19 19 19 18 18 19 19 20 21 20 20 21 21 21 21 21 21 21 21 20 19 19 19 19 19 19 19 19 19 19 19 19 18
19 17 19 20 21 20 20 19 20 21 21 21 23 23 22 23 20 20 20 21 19 18 19 18 19 19 19 19 20 19 19 19 20 20 20 18 18 18 18 18 19 19 19 19 19 19 19 18 18
16 18 18 19 19 17 18 18 20 19 20 21 21 22 23 23 24 23 21 20 20 19 18 17 18 18 18 18 18 18 18 18 19 19 19 19 19 19 18 18 18 18 18 18 18 18 18 18 18
16 15 16 17 16 16 16 17 18 18 19 20 20 21 22 23 23 24 23 22 21 19 18 18 17 17 17 17 17 17 17 18 18 19 19 19 19 19 18 18 18 17 17 17 17 17 18 18 18
15 15 15 15 16 16 17 17 17 18 18 20 20 21 21 22 23 23 23 24 21 20 19 17 16 17 17 17 17 17 17 17 18 18 19 19 19 19 18 18 18 17 17 17 18 18 18 18 18
14 15 15 15 16 16 16 17 16 19 20 20 21 21 22 22 23 23 23 23 22 22 20 18 17 16 17 17 16 17 17 17 18 18 19 19 18 18 19 18 18 18 17 17 17 18 18 17 18
14 14 16 16 15 16 16 17 17 18 18 19 19 20 21 21 21 22 22 23 23 23 21 20 19 17 16 16 16 16 16 17 17 17 17 18 17 17 17 18 18 18 17 17 17 17 18 16 17
14 14 13 15 16 15 15 15 18 18 16 16 17 18 20 20 21 22 22 23 23 23 21 20 19 18 17 17 16 16 16 16 16 16 17 17 18 17 17 17 17 18 18 17 17 17 17 16 15
12 14 14 14 16 15 15 14 16 16 16 16 16 17 18 20 21 21 21 22 23 22 22 20 19 19 19 17 17 16 16 16 16 17 17 17 17 17 17 17 17 18 17 17 16 16 16 16 15
13 13 13 13 14 14 14 14 15 16 16 16 16 17 17 18 20 20 21 21 21 22 21 21 19 20 18 17 17 16 16 16 16 18 19 18 17 17 17 16 17 18 17 16 16 15 15 15 14
13 12 12 13 14 13 13 13 14 15 15 16 16 16 17 18 19 18 15 14 16 16 19 20 19 18 18 17 17 17 16 16 16 16 17 18 16 17 17 17 18 18 16 16 16 15 15 14 15
11 11 11 13 14 14 13 13 14 15 15 16 16 16 17 17 18 16 12 11 10 10 11 16 17 18 17 18 18 18 18 17 16 16 16 16 17 19 18 18 18 18 16 16 15 15 15 14 15
12 11 11 11 13 14 13 14 15 16 16 13 11 10 9 9 10 10 10 9 9 8 9 11 14 17 18 18 18 17 17 17 16 16 16 16 16 17 18 17 16 18 17 16 16 16 15 15 14
11 12 12 12 12 11 13 12 14 14 14 11 9 8 7 7 8 8 8 8 7 7 7 9 11 14 16 17 18 17 18 18 17 17 16 16 16 16 17 18 16 16 16 16 16 15 15 15 15
11 12 12 12 11 11 13 12 14 12 10 8 7 7 7 6 6 7 7 7 6 6 6 8 10 10 13 15 17 17 18 18 19 17 16 16 17 16 16 16 16 16 16 16 15 15 15 16 16
12 11 12 12 11 10 13 11 12 8 7 7 6 6 5 6 6 6 6 5 5 5 6 7 8 8 9 12 14 16 17 18 17 17 17 16 16 16 16 16 16 16 16 15 15 16 15 15 16
11 11 11 11 11 12 14 13 9 7 6 5 5 4 5 5 5 5 5 5 4 4 4 5 6 6 7 8 10 11 13 14 15 17 16 16 16 16 16 16 16 17 20 17 15 15 15 15 15
11 12 12 11 13 13 14 11 8 6 5 4 3 3 3 4 4 4 4 4 4 4 3 4 5 5 5 6 7 9 10 10 11 13 15 16 16 16 16 15 15 16 17 16 15 15 15 15 15
12 11 13 12 12 11 12 9 8 6 5 4 4 3 3 2 3 3 3 3 3 3 3 2 3 4 4 4 5 6 7 9 9 10 12 14 16 16 15 15 15 15 16 18 15 15 15 14 14
13 14 12 12 11 12 11 9 7 6 5 4 4 3 2 2 2 2 3 3 3 2 2 2 2 2 2 3 4 4 5 7 8 9 11 13 14 15 15 15 15 15 15 16 15 14 14 14 14
11 12 12 13 12 12 12 9 6 5 4 4 3 2 2 2 1 1 1 1 2 2 1 1 1 1 1 1 2 3 3 4 5 6 8 11 13 15 15 15 15 15 14 15 14 14 14 14 14
13 12 13 12 13 12 10 7 5 4 4 3 3 2 1 1 1 0 -0 -0 0 1 1 1 0 1 1 1 1 1 2 2 3 4 6 8 12 14 15 14 14 14 14 14 14 13 13 13 13
Height
791 791 791 792 803 809 816 798 800 791 788 777 775 774 771 764 765 769 741 739 744 746 749 757 763 768 772 775 778 779 780 780 783 787 790 793 795 798 800 802 805 810 812 814 815 817 818 819 821
790 792 792 797 804 807 797 795 790 781 777 775 769 766 768 762 750 743 741 740 743 745 749 755 761 767 771 775 778 781 782 782 783 788 790 793 796 798 801 802 805 808 812 814 816 818 819 820 822
790 791 791 796 811 796 791 788 780 779 776 775 771 763 761 756 748 745 741 742 744 747 749 754 760 767 772 775 778 781 783 785 785 788 792 794 796 798 802 804 806 809 812 814 816 818 819 821 822
790 792 800 801 801 797 792 785 784 777 769 772 771 768 758 750 750 747 744 743 746 749 752 754 760 766 771 775 779 781 783 785 787 789 792 795 796 799 801 804 806 809 812 814 816 817 819 821 823
791 795 800 808 802 801 792 787 783 776 775 771 772 768 763 748 747 745 745 746 746 749 753 757 761 766 770 774 778 781 784 786 788 789 791 794 797 799 801 804 807 810 812 814 815 817 819 820 823
792 797 802 802 801 796 786 775 777 774 770 769 770 768 758 750 749 749 746 748 750 752 754 757 762 767 771 774 776 781 784 786 788 790 792 794 797 799 802 804 807 810 812 814 816 818 819 820 823
793 797 798 805 799 794 782 771 773 768 769 767 762 764 753 750 751 749 750 749 749 751 755 758 763 767 771 774 776 779 782 785 787 790 792 795 798 800 802 804 807 810 812 814 816 817 819 820 823
795 797 805 800 794 787 778 772 768 770 767 763 760 763 760 755 751 750 748 750 750 752 755 756 761 765 769 772 776 779 782 784 786 789 792 795 799 802 803 805 808 811 812 814 816 817 819 821 823
796 798 799 795 792 782 777 780 771 770 768 768 764 760 760 757 753 752 751 751 751 752 755 757 759 762 766 769 773 777 782 784 786 788 791 795 798 802 804 806 807 810 812 813 816 818 819 821 824
793 799 793 786 782 782 783 784 780 776 772 769 762 760 760 757 756 755 754 750 750 749 751 754 757 760 763 766 770 775 779 783 785 787 789 793 796 799 803 806 808 810 812 814 816 818 819 821 822
796 792 791 787 786 790 788 785 782 780 774 768 766 760 759 757 755 754 752 752 752 754 757 756 757 759 762 765 769 772 777 780 783 785 787 789 793 797 801 804 808 811 812 814 816 817 818 820 822
800 798 796 793 793 793 791 787 783 783 772 771 765 760 758 756 751 750 748 747 748 749 750 756 761 760 761 764 768 771 773 777 779 781 784 787 790 793 797 800 804 808 810 811 813 816 817 819 820
798 797 797 795 794 790 787 783 782 775 775 766 760 757 752 751 748 745 744 742 741 742 747 749 755 759 758 761 763 769 769 773 778 780 782 784 787 789 793 796 800 804 807 809 811 813 816 817 819
797 794 794 791 790 787 783 775 779 768 768 762 757 749 746 744 744 740 739 737 737 735 739 745 749 754 758 758 758 763 767 767 773 777 779 781 783 785 788 792 796 800 804 807 809 811 814 816 817
794 791 786 784 785 784 781 765 771 766 766 762 757 750 742 739 737 734 730 730 731 731 732 735 741 748 751 755 757 757 763 764 766 771 775 778 780 782 785 788 792 796 800 804 807 809 812 814 816
795 791 789 785 785 784 785 748 764 764 765 763 760 752 741 731 730 727 727 723 723 724 726 726 732 737 746 747 755 755 757 763 762 765 771 774 777 780 782 785 788 792 796 800 803 806 810 812 814
803 788 786 783 783 782 787 761 762 765 763 754 751 747 742 730 724 723 724 719 716 715 717 719 721 729 736 742 747 754 756 758 759 759 765 769 773 776 779 782 785 790 792 796 800 803 806 809 811
792 792 787 788 782 783 784 769 748 759 756 747 744 740 736 730 720 721 717 713 710 709 709 712 713 719 728 738 743 749 753 756 757 755 757 762 768 771 776 778 780 786 788 791 794 798 802 805 808
793 795 791 778 773 785 775 770 754 743 745 739 731 733 728 720 715 716 713 708 705 703 702 705 710 715 723 732 737 741 742 746 749 753 754 757 762 766 770 773 776 779 783 785 789 793 797 801 804
799 800 786 774 771 774 765 762 751 738 731 733 731 724 720 716 713 716 716 711 708 705 702 700 703 708 715 722 726 734 739 742 745 746 747 750 754 756 762 765 767 771 776 780 784 787 792 796 799
790 794 786 786 770 764 761 748 742 732 727 736 742 741 737 734 728 723 721 719 711 708 705 703 699 701 709 716 721 727 733 737 740 741 741 743 750 752 753 758 762 763 767 772 776 781 786 790 793
785 785 785 782 781 772 765 751 738 735 731 744 748 746 744 740 736 731 725 722 716 710 707 704 699 699 704 709 714 720 722 726 729 731 735 739 744 747 748 749 755 762 763 767 770 775 779 784 787
781 779 779 778 777 774 752 763 734 745 753 756 758 754 749 744 740 736 731 727 720 715 712 707 703 700 703 706 710 716 721 722 725 728 730 732 737 743 742 746 751 755 759 763 765 768 772 776 779
778 781 772 772 777 776 754 765 748 773 777 769 766 762 754 747 743 739 734 730 724 719 713 710 705 703 704 705 708 712 717 720 723 725 726 726 729 733 737 741 743 748 753 759 762 764 766 768 773
782 782 771 768 773 754 742 748 777 783 784 781 775 770 761 753 748 743 736 733 728 722 717 714 706 707 708 709 711 712 713 719 722 723 722 721 724 725 728 730 733 736 741 748 754 758 760 760 765
778 772 770 772 754 751 740 752 779 790 789 786 782 776 769 759 754 749 743 739 732 725 721 718 715 714 716 713 712 711 715 723 721 720 720 719 718 718 723 724 728 728 728 734 744 748 753 755 758
773 771 763 768 760 762 750 776 780 787 791 789 783 778 770 766 759 753 749 745 738 733 728 724 724 724 723 717 720 711 722 722 715 717 717 716 715 716 718 719 720 725 724 724 733 740 743 746 750
760 759 766 768 766 752 751 773 786 791 793 792 787 783 779 773 766 761 757 751 746 741 737 731 729 727 724 708 712 726 718 714 716 717 714 712 712 712 714 715 717 720 722 719 726 732 735 738 742
763 761 761 758 760 753 746 779 802 803 802 799 796 791 785 782 775 770 763 757 754 750 745 740 737 732 729 726 732 735 729 724 720 716 712 708 706 707 709 710 712 715 717 715 721 725 728 730 735
753 753 753 756 750 751 762 795 809 809 809 805 804 801 796 790 786 776 771 763 758 755 752 744 739 734 738 736 733 730 726 722 720 716 710 705 702 702 704 705 708 710 712 712 714 718 720 722 725
Wind_Speed
2 2 3 3 2 1 2 5 1 4 3 1 5 5 10 7 5 3 7 12 14 32 37 35 33 32 30 28 28 28 28 28 28 29 29 29 28 27 24 24 22 20 17 17 16 14 14 13 12
3 3 3 3 2 3 4 4 8 8 4 9 9 2 3 5 7 9 3 15 23 33 37 36 35 33 31 28 27 27 26 27 29 29 30 28 27 25 24 24 22 20 18 17 16 14 14 13 12
4 2 1 1 3 7 4 5 5 4 6 4 5 3 4 4 3 5 5 18 25 31 37 37 37 34 31 29 27 26 26 26 28 29 28 27 26 25 24 23 22 20 18 16 15 14 13 12 12
2 2 3 3 8 5 4 1 2 7 5 2 2 10 5 3 4 7 5 16 23 27 31 37 37 35 32 29 27 26 26 27 27 28 27 26 26 25 24 23 21 20 18 16 15 15 14 13 11
4 2 3 1 5 5 6 6 10 10 7 7 2 7 8 5 9 6 7 16 22 29 31 36 36 34 32 30 28 26 26 26 27 27 27 26 26 25 24 23 21 19 18 17 14 15 15 14 13
2 1 2 4 6 4 5 11 4 7 8 10 4 4 4 8 12 7 9 14 19 25 29 34 35 33 32 30 29 27 26 26 26 26 26 26 25 25 24 22 22 20 17 15 15 16 15 15 14
2 2 3 2 4 4 6 4 7 13 10 7 3 5 3 10 15 10 7 16 23 26 29 30 32 31 30 30 29 28 28 27 26 26 25 25 24 24 23 22 22 21 18 15 16 16 15 15 15
3 1 2 3 6 9 5 3 3 4 8 5 2 2 5 15 18 8 9 13 20 25 28 31 30 30 31 30 29 28 28 28 27 26 25 24 23 23 22 22 21 20 18 16 17 17 16 15 15
3 3 6 7 9 6 3 7 1 7 10 7 7 7 10 15 12 3 5 10 14 22 26 29 32 31 30 30 30 28 27 27 27 26 25 24 22 22 21 21 21 20 18 17 17 17 16 15 14
4 3 6 5 6 6 7 7 15 8 14 13 11 3 14 18 8 7 10 14 19 23 29 29 29 29 28 27 28 28 27 27 27 28 28 25 22 21 20 21 21 19 18 17 17 17 17 16 17
1 5 3 2 4 8 7 14 9 14 15 9 18 22 21 25 22 15 13 16 17 14 18 24 27 28 28 22 23 28 23 27 28 28 29 28 25 23 21 20 19 18 19 18 18 18 18 18 16
4 2 4 6 8 10 13 12 14 16 21 16 23 26 24 22 22 22 18 20 20 16 21 22 21 23 25 21 21 24 24 25 29 31 31 30 29 26 24 22 23 18 18 18 18 17 20 19 16
7 3 5 9 12 14 16 18 19 22 20 24 23 21 20 17 18 24 23 24 22 22 21 24 24 25 27 26 24 22 26 23 27 29 31 31 30 30 27 24 25 22 21 20 21 20 20 19 18
4 11 12 11 15 13 17 17 7 9 18 18 23 24 22 22 20 28 24 21 23 26 25 24 27 27 27 26 25 25 28 29 26 29 32 31 30 31 31 28 27 27 24 23 20 22 21 18 18
6 16 19 13 3 4 14 23 11 7 14 15 17 20 23 21 26 24 29 26 26 26 27 29 33 29 29 29 26 28 25 28 28 27 31 33 30 28 30 30 28 27 26 24 22 22 21 17 19
8 8 6 4 14 7 12 27 16 18 19 24 23 21 22 26 22 29 29 30 25 26 26 31 33 36 32 31 27 25 25 25 27 28 28 33 31 29 29 28 29 27 27 27 26 25 21 16 15
1 12 16 16 9 16 5 28 4 26 24 25 22 22 23 24 24 28 27 30 27 26 29 30 33 35 41 34 29 25 24 28 28 30 30 32 33 31 30 28 27 27 26 27 26 24 22 20 18
12 15 18 18 7 17 22 28 30 24 24 24 22 21 21 24 27 26 26 28 26 23 27 32 33 38 37 29 25 23 23 24 26 31 30 30 33 32 29 27 27 27 27 27 26 22 24 18 16
16 18 22 25 27 18 21 22 28 27 22 25 24 21 23 24 24 17 9 9 7 11 18 25 25 26 27 27 28 26 30 28 29 27 27 30 29 32 32 30 28 28 29 30 29 26 23 21 21
11 13 22 21 20 14 19 23 26 28 28 23 20 23 22 23 20 9 10 10 9 5 1 12 18 25 28 29 30 24 25 24 28 27 27 31 33 36 34 36 34 33 29 26 28 28 18 18 23
14 15 17 16 23 25 16 15 8 20 21 9 11 13 12 12 10 9 12 14 12 12 10 2 12 19 24 27 24 21 14 18 23 27 28 30 28 32 35 35 33 36 34 29 29 29 22 15 21
16 9 12 14 14 8 8 13 17 15 13 13 12 12 13 13 12 12 12 14 17 16 12 9 6 7 14 23 23 26 24 21 24 25 26 25 29 29 33 37 33 30 32 29 29 29 27 19 16
7 5 12 14 14 14 15 7 5 14 16 13 13 13 11 12 12 13 13 16 18 18 15 12 11 13 7 12 17 22 25 22 20 23 23 30 29 33 33 32 34 34 32 29 31 29 29 29 20
3 8 12 9 6 5 4 3 3 8 11 13 12 12 12 12 12 12 17 17 20 21 20 18 17 17 14 10 6 7 16 19 17 19 21 22 25 30 35 36 36 33 30 29 32 29 27 28 28
5 4 3 2 3 5 8 6 4 11 13 11 14 14 13 12 12 13 15 16 21 24 24 21 23 22 18 14 10 7 3 4 7 18 20 20 22 27 34 38 37 38 33 38 33 32 29 30 29
6 4 2 4 4 11 11 5 4 7 11 13 12 12 14 12 12 13 15 18 21 25 27 26 25 22 19 19 17 14 11 9 9 11 12 19 26 29 26 35 36 37 40 33 34 33 32 31 31
2 5 3 4 8 6 1 2 5 15 14 14 16 14 17 15 13 16 18 20 22 24 26 27 24 22 20 21 18 21 13 13 14 17 20 16 25 25 25 32 34 36 33 32 35 34 35 33 33
14 1 1 2 4 4 2 3 6 14 15 16 17 18 17 17 18 15 15 22 24 25 25 27 26 24 26 33 30 20 22 19 17 16 17 21 22 26 22 26 26 25 26 31 31 33 33 32 32
3 4 5 3 3 3 4 3 6 10 12 14 14 15 16 16 16 16 14 24 26 26 27 27 27 30 30 29 21 18 21 19 18 16 16 15 18 24 26 25 24 24 25 28 33 33 32 33 32
2 4 9 4 3 1 1 3 7 9 11 14 14 14 14 14 15 13 20 25 29 30 29 30 32 34 30 28 28 29 29 29 27 26 23 19 11 18 22 24 24 24 24 27 33 33 31 33 33
Wind_Direction
246 184 141 55 197 57 175 241 270 258 232 206 302 261 274 284 202 233 322 216 170 167 169 174 177 177 176 173 167 162 159 155 155 158 159 159 160 161 159 155 154 156 155 154 154 155 155 153 150
163 153 80 104 199 194 234 230 230 233 235 305 288 240 256 285 251 282 296 176 169 168 169 173 178 178 177 175 170 166 161 156 153 156 159 161 163 162 161 157 157 156 157 156 156 157 155 153 154
145 141 178 147 153 220 232 218 271 306 279 262 298 273 287 263 295 281 259 177 171 170 171 174 178 179 179 177 174 170 165 161 158 159 163 164 164 164 163 160 158 158 160 161 161 161 159 159 160
140 86 82 221 218 244 246 54 223 322 332 125 297 295 291 274 285 308 237 182 172 173 174 177 179 181 181 179 178 175 171 167 165 165 167 168 166 166 164 162 161 160 161 158 167 162 165 162 162
60 80 218 215 250 286 270 270 275 289 294 268 352 285 300 288 319 290 197 185 175 175 177 179 182 183 183 182 182 179 176 172 171 170 170 171 169 167 165 165 162 161 167 164 167 165 166 160 160
115 83 210 241 250 250 277 260 251 270 265 280 240 258 262 353 351 328 191 181 182 179 178 181 185 186 187 186 185 184 181 179 176 175 174 173 173 169 168 167 165 162 172 168 161 165 163 159 159
151 168 232 199 230 269 262 269 266 277 279 282 257 267 278 2 348 316 215 190 188 186 183 183 186 190 191 191 190 188 186 184 182 180 179 178 178 174 172 170 168 168 173 172 167 168 165 162 161
105 161 196 226 258 272 252 261 304 259 305 316 313 305 328 337 330 290 214 199 191 191 190 188 188 190 192 193 195 194 192 189 186 185 184 183 182 181 178 175 174 176 177 175 173 171 170 168 166
143 230 244 248 249 279 312 335 2 330 299 344 323 301 335 350 348 294 205 195 195 198 197 196 193 193 192 193 195 197 198 194 190 188 188 186 182 185 185 183 181 181 183 178 177 176 176 172 173
210 216 233 235 245 275 324 329 317 315 314 307 291 303 331 336 339 301 259 225 212 203 201 200 197 195 193 195 195 196 197 197 193 191 188 189 188 186 186 190 188 187 186 183 182 181 181 181 180
133 243 219 266 351 4 328 311 317 301 288 287 305 306 310 314 305 296 270 243 242 231 222 207 201 198 196 193 195 196 196 199 197 196 193 194 192 191 191 190 191 190 190 185 185 187 188 191 189
293 280 340 333 344 328 315 305 284 278 285 289 291 289 289 289 292 287 268 247 236 232 215 215 214 202 195 191 195 195 196 201 200 200 198 197 195 194 193 193 196 193 191 189 186 192 195 196 196
246 267 303 304 306 300 290 279 274 272 280 276 286 291 294 290 284 286 277 267 231 227 225 213 211 210 198 194 191 197 194 200 203 201 202 201 200 199 197 197 200 200 199 196 196 200 199 200 200
314 296 302 307 295 281 274 289 306 277 290 283 291 290 288 282 281 281 280 268 243 230 220 216 214 211 206 200 193 195 201 199 201 207 205 207 205 203 203 202 203 207 205 204 203 205 205 206 208
286 301 302 290 275 319 323 280 262 298 318 305 301 296 295 289 286 269 268 265 258 246 223 216 217 211 209 208 203 197 203 198 199 204 209 208 209 208 209 206 206 208 209 209 208 211 210 211 216
308 284 330 100 315 349 6 283 300 298 327 310 303 297 291 289 285 279 269 267 260 249 225 217 213 212 214 208 211 206 202 205 201 203 207 210 209 211 209 209 212 210 210 213 215 217 216 215 217
351 292 294 308 311 286 283 295 266 308 298 295 291 284 282 289 285 289 281 270 258 242 227 215 208 210 216 212 209 212 214 212 211 210 213 213 213 212 212 213 216 214 211 212 214 216 218 216 220
288 284 285 290 274 288 286 280 291 291 284 284 285 281 281 278 282 290 292 278 266 249 230 221 208 213 213 210 205 213 218 223 223 219 215 215 217 215 211 216 218 217 215 212 212 212 219 219 220
275 284 289 280 286 295 282 282 290 291 279 280 277 279 274 270 271 284 303 314 292 228 209 217 209 204 200 201 203 208 215 219 225 226 220 217 216 217 217 220 219 219 218 218 217 213 219 220 229
276 282 271 286 292 303 297 292 280 284 283 285 297 282 281 279 283 310 350 3 19 12 328 184 193 201 200 202 207 209 220 221 222 225 222 221 218 221 220 222 220 219 214 211 215 212 198 206 216
260 256 276 278 309 303 296 289 307 297 294 23 18 4 3 351 344 1 358 358 11 17 6 355 183 183 200 207 204 201 210 215 213 222 224 222 220 222 220 221 219 216 214 206 206 216 202 196 211
278 227 259 287 306 302 350 294 325 338 345 7 17 12 4 4 357 3 6 3 4 7 8 11 61 148 194 205 206 206 206 210 220 220 219 219 221 221 222 222 215 213 211 210 208 214 213 206 199
252 267 282 282 284 298 300 257 316 356 355 3 358 5 6 9 11 10 12 8 11 10 15 28 56 64 87 193 210 214 222 225 226 220 220 219 220 225 224 218 217 217 219 214 213 208 211 219 210
222 293 287 262 256 264 351 351 3 5 345 347 351 351 5 13 15 16 19 16 20 19 24 27 44 46 50 84 122 173 226 226 225 221 217 216 216 218 222 222 219 215 220 223 220 211 211 216 219
190 265 317 290 198 258 333 323 33 2 3 356 354 350 353 12 16 16 19 15 20 22 24 27 34 35 36 47 53 54 44 285 261 243 223 211 212 216 218 217 213 216 221 226 220 216 215 214 215
182 195 274 306 306 312 308 348 46 20 6 0 359 0 358 1 17 19 22 18 23 26 25 26 29 26 25 36 34 31 16 323 297 282 287 227 223 229 224 219 219 215 212 218 220 216 219 218 219
146 200 201 280 274 267 12 65 208 20 15 3 7 9 7 4 5 18 20 20 23 26 26 28 27 25 22 34 24 26 8 352 339 308 285 276 241 236 226 227 217 221 219 221 213 214 217 220 224
230 166 186 177 290 288 166 95 357 2 9 2 7 8 6 7 10 6 14 20 23 27 29 32 30 26 18 31 28 9 9 5 348 330 319 287 262 241 238 234 224 222 217 222 220 217 217 215 219
161 207 211 242 210 281 298 72 24 17 12 6 11 9 6 6 10 5 6 21 23 24 28 33 32 29 24 26 27 21 18 12 3 355 341 326 272 250 246 236 231 226 223 224 217 220 215 215 215
207 236 210 237 218 186 78 86 15 31 23 16 15 8 7 12 11 3 16 19 22 17 19 27 29 28 24 25 24 21 20 17 11 8 7 359 335 267 264 246 238 232 229 228 222 218 218 216 210